Location: The Saddle
(36.8333°N, 80.3417°W)
Time: 08:56:47
(UTC-05:00)

Vanguard 2 Rocket - Pass Details

Date: 13 December 2023
Orbit: 555 x 3309 km, 32.9° (Epoch: 02 March)

Event Time Altitude Azimuth Distance (km) Brightness Sun altitude
Rises 10:44:59 0° 213° (SSW) 4,303 10.8 26.3°
Reaches altitude 10° 10:47:42 10° 205° (SSW) 3,646 10.7 26.5°
Maximum altitude 10:56:41 37° 141° (SE) 2,959 11.3 27.2°
Drops below altitude 10° 11:10:50 10° 82° (E) 5,748 11.2 28.1°
Sets 11:16:26 0° 76° (ENE) 7,051 11.5 28.4°
